GW1010 Weather Reports


Display with metric or nautical units.
time (UTC)temp
F
wind
direction
speed
MPH
gust
MPH
rain 1hr
in
rain 24hr
in
rain mn
in
humidity
%
barometer
mb
20260831014547 71 160 2.0 8.0 0.00 0.00 0.00 51 1012.7
20260831014026 72 51 2.0 7.0 0.00 0.00 0.00 49 1012.7
20260831013527 73 152 2.0 6.0 0.00 0.00 0.00 48 1012.7
20260831013110 74 174 1.0 5.0 0.00 0.00 0.00 46 1012.7
20260831012528 75 122 2.0 5.0 0.00 0.00 0.00 44 1012.7
20260831012029 76 101 1.0 4.0 0.00 0.00 0.00 42 1012.7
20260831011550 77 170 0.0 6.0 0.00 0.00 0.00 41 1012.6
20260831011030 78 160 1.0 6.0 0.00 0.00 0.00 38 1012.7
20260831010528 78 213 2.0 6.0 0.00 0.00 0.00 36 1012.7
20260831010049 79 58 1.0 6.0 0.00 0.00 0.00 33 1012.6
20260831005528 79 221 1.0 6.0 0.00 0.00 0.00 34 1012.5
20260831005028 80 263 1.0 4.0 0.00 0.00 0.00 32 1012.5
20260831004546 80 222 1.0 4.0 0.00 0.00 0.00 34 1012.5
20260831004031 80 139 0.0 5.0 0.00 0.00 0.00 34 1012.4
20260831003528 81 271 1.0 5.0 0.00 0.00 0.00 31 1012.4
20260831003058 81 249 1.0 3.0 0.00 0.00 0.00 33 1012.4
20260831002528 81 240 1.0 5.0 0.00 0.00 0.00 32 1012.5
20260831002028 81 249 0.0 5.0 0.00 0.00 0.00 32 1012.5
20260831001541 81 58 1.0 4.0 0.00 0.00 0.00 30 1012.6
20260831001028 81 58 1.0 4.0 0.00 0.00 0.00 33 1012.6
20260831000527 81 238 1.0 4.0 0.00 0.00 0.00 36 1012.6
20260831000048 81 186 1.0 4.0 0.00 0.00 0.00 38 1012.7
20260830235527 81 157 2.0 4.0 0.00 0.00 0.00 39 1012.6
20260830235030 81 165 2.0 4.0 0.00 0.00 0.00 39 1012.7
20260830234547 82 145 1.0 3.0 0.00 0.00 0.00 38 1012.6
20260830234028 82 233 1.0 3.0 0.00 0.00 0.00 38 1012.6
20260830233528 82 249 1.0 4.0 0.00 0.00 0.00 38 1012.7
20260830233046 82 156 1.0 4.0 0.00 0.00 0.00 39 1012.6
20260830232532 83 115 1.0 7.0 0.00 0.00 0.00 37 1012.7
20260830232027 83 129 1.0 7.0 0.00 0.00 0.00 39 1012.7
20260830231548 83 165 2.0 7.0 0.00 0.00 0.00 36 1012.7
20260830231028 83 145 3.0 6.0 0.00 0.00 0.00 36 1012.7
20260830230528 84 72 1.0 4.0 0.00 0.00 0.00 37 1012.7
20260830230045 84 68 1.0 4.0 0.00 0.00 0.00 37 1012.7
20260830225528 84 142 1.0 6.0 0.00 0.00 0.00 36 1012.7
20260830225028 84 255 2.0 6.0 0.00 0.00 0.00 34 1012.7
20260830224553 84 0 1.0 8.0 0.00 0.00 0.00 34 1012.8
20260830224030 84 64 1.0 8.0 0.00 0.00 0.00 32 1012.8
20260830223528 85 201 1.0 6.0 0.00 0.00 0.00 34 1013.0
20260830223048 85 343 2.0 6.0 0.00 0.00 0.00 34 1013.0
20260830222529 85 42 1.0 8.0 0.00 0.00 0.00 34 1013.0
20260830222032 85 235 2.0 8.0 0.00 0.00 0.00 35 1013.0
20260830221549 85 255 1.0 5.0 0.00 0.00 0.00 34 1013.2
20260830221030 85 231 2.0 6.0 0.00 0.00 0.00 34 1013.1
20260830220528 86 266 2.0 6.0 0.00 0.00 0.00 34 1013.1
20260830220044 86 179 2.0 7.0 0.00 0.00 0.00 34 1013.1
20260830215526 86 191 2.0 8.0 0.00 0.00 0.00 35 1013.1
20260830215026 86 342 2.0 8.0 0.00 0.00 0.00 35 1013.2
20260830214551 87 78 2.0 6.0 0.00 0.00 0.00 34 1013.2
20260830214027 87 226 1.0 7.0 0.00 0.00 0.00 34 1013.3
20260830213527 87 221 2.0 7.0 0.00 0.00 0.00 34 1013.3
20260830213047 87 285 2.0 6.0 0.00 0.00 0.00 34 1013.4
20260830212527 88 186 2.0 6.0 0.00 0.00 0.00 33 1013.4
20260830212028 88 227 2.0 6.0 0.00 0.00 0.00 32 1013.4
20260830211542 89 168 2.0 7.0 0.00 0.00 0.00 32 1013.4
20260830211031 89 195 2.0 8.0 0.00 0.00 0.00 32 1013.4
20260830210534 89 180 2.0 8.0 0.00 0.00 0.00 32 1013.4
20260830210051 89 166 1.0 4.0 0.00 0.00 0.00 31 1013.4
20260830205529 89 246 1.0 5.0 0.00 0.00 0.00 31 1013.4
20260830205028 89 234 1.0 5.0 0.00 0.00 0.00 32 1013.4
20260830204549 89 110 1.0 4.0 0.00 0.00 0.00 33 1013.4
20260830204026 89 219 1.0 4.0 0.00 0.00 0.00 33 1013.4
20260830203526 89 281 2.0 4.0 0.00 0.00 0.00 34 1013.3
20260830203100 88 129 2.0 6.0 0.00 0.00 0.00 34 1013.4
20260830202528 87 296 1.0 6.0 0.00 0.00 0.00 28 1013.4
20260830202028 87 305 2.0 4.0 0.00 0.00 0.00 29 1013.4
20260830201549 87 195 1.0 4.0 0.00 0.00 0.00 28 1013.6
20260830201028 86 170 1.0 4.0 0.00 0.00 0.00 29 1013.5
20260830200531 86 245 1.0 4.0 0.00 0.00 0.00 28 1013.6
20260830200048 85 188 0.0 3.0 0.00 0.00 0.00 29 1013.6
20260830195528 85 188 1.0 4.0 0.00 0.00 0.00 29 1013.6
20260830195027 85 188 1.0 4.0 0.00 0.00 0.00 29 1013.8
20260830194555 84 195 0.0 5.0 0.00 0.00 0.00 30 1013.9
20260830194027 83 0 1.0 5.0 0.00 0.00 0.00 30 1013.9
20260830193529 83 0 0.0 3.0 0.00 0.00 0.00 32 1014.0
20260830193047 82 0 1.0 3.0 0.00 0.00 0.00 32 1014.1
20260830192528 81 333 1.0 3.0 0.00 0.00 0.00 32 1014.3
20260830192031 81 330 1.0 4.0 0.00 0.00 0.00 31 1014.3
20260830191547 80 0 1.0 5.0 0.00 0.00 0.00 33 1014.4
20260830191027 79 333 1.0 5.0 0.00 0.00 0.00 33 1014.4
20260830190527 79 322 1.0 4.0 0.00 0.00 0.00 34 1014.5
20260830190046 79 0 2.0 4.0 0.00 0.00 0.00 34 1014.5
20260830185529 78 327 1.0 4.0 0.00 0.00 0.00 37 1014.6
20260830185027 77 344 0.0 4.0 0.00 0.00 0.00 38 1014.7
20260830184554 76 318 1.0 5.0 0.00 0.00 0.00 39 1014.8
20260830184031 76 316 1.0 5.0 0.00 0.00 0.00 39 1014.9
20260830183526 76 322 0.0 4.0 0.00 0.00 0.00 41 1015.0
20260830183055 75 236 1.0 4.0 0.00 0.00 0.00 41 1015.0
20260830182529 75 241 1.0 4.0 0.00 0.00 0.00 41 1015.1
20260830182030 74 331 0.0 4.0 0.00 0.00 0.00 43 1015.2
20260830181556 73 343 1.0 4.0 0.00 0.00 0.00 45 1015.2
20260830181031 73 316 1.0 4.0 0.00 0.00 0.00 45 1015.2
20260830180526 73 327 2.0 5.0 0.00 0.00 0.00 46 1015.3
20260830180058 73 329 2.0 5.0 0.00 0.00 0.00 47 1015.3
20260830175529 73 0 0.0 3.0 0.00 0.00 0.00 49 1015.3
20260830175028 72 341 1.0 2.0 0.00 0.00 0.00 48 1015.3
20260830174559 71 245 0.0 3.0 0.00 0.00 0.00 50 1015.4
20260830174030 71 0 0.0 3.0 0.00 0.00 0.00 51 1015.3
20260830173531 70 318 1.0 3.0 0.00 0.00 0.00 51 1015.3
20260830173105 70 235 1.0 3.0 0.00 0.00 0.00 51 1015.3
20260830172528 70 226 1.0 3.0 0.00 0.00 0.00 52 1015.3
20260830172031 70 326 1.0 3.0 0.00 0.00 0.00 52 1015.4
20260830171545 69 0 0.0 2.0 0.00 0.00 0.00 55 1015.4
20260830171030 69 0 0.0 2.0 0.00 0.00 0.00 57 1015.4
20260830170527 68 0 0.0 1.0 0.00 0.00 0.00 59 1015.4
20260830170046 67 260 0.0 2.0 0.00 0.00 0.00 62 1015.4
20260830165527 66 0 0.0 3.0 0.00 0.00 0.00 63 1015.5
20260830165027 65 264 0.0 3.0 0.00 0.00 0.00 64 1015.5
20260830164607 65 0 0.0 2.0 0.00 0.00 0.00 66 1015.5
20260830164028 64 0 0.0 2.0 0.00 0.00 0.00 67 1015.7
20260830163529 64 339 0.0 2.0 0.00 0.00 0.00 67 1015.6
20260830163104 63 0 0.0 1.0 0.00 0.00 0.00 69 1015.7
20260830162528 62 0 0.0 2.0 0.00 0.00 0.00 72 1015.7
20260830162027 61 0 0.0 3.0 0.00 0.00 0.00 73 1015.7
20260830161556 61 0 0.0 3.0 0.00 0.00 0.00 74 1015.6
20260830161029 60 345 1.0 3.0 0.00 0.00 0.00 74 1015.7
20260830160529 60 0 0.0 4.0 0.00 0.00 0.00 76 1015.7
20260830160054 59 317 0.0 4.0 0.00 0.00 0.00 77 1015.7
20260830155528 59 319 2.0 5.0 0.00 0.00 0.00 77 1015.7
20260830155030 58 330 1.0 5.0 0.00 0.00 0.00 78 1015.7
20260830154553 58 330 1.0 3.0 0.00 0.00 0.00 79 1015.8
20260830154028 58 0 0.0 3.0 0.00 0.00 0.00 80 1015.9
20260830153525 57 0 0.0 2.0 0.00 0.00 0.00 81 1015.8
20260830153049 57 0 0.0 1.0 0.00 0.00 0.00 81 1015.9
20260830152532 56 0 0.0 0.0 0.00 0.00 0.00 79 1015.8
20260830152028 56 0 0.0 0.0 0.00 0.00 0.00 78 1015.9
20260830151551 55 0 0.0 0.0 0.00 0.00 0.00 78 1015.9
20260830151028 54 0 0.0 0.0 0.00 0.00 0.00 78 1015.8
20260830150526 53 0 0.0 2.0 0.00 0.00 0.00 75 1015.7
20260830150050 53 0 0.0 2.0 0.00 0.00 0.00 74 1015.7
20260830145531 52 139 0.0 2.0 0.00 0.00 0.00 73 1015.8
20260830145029 52 128 1.0 2.0 0.00 0.00 0.00 74 1015.8
20260830144603 52 0 0.0 2.0 0.00 0.00 0.00 74 1015.8
20260830144027 51 0 0.0 2.0 0.00 0.00 0.00 74 1015.8
20260830143530 51 138 0.0 2.0 0.00 0.00 0.00 75 1015.8
20260830143102 50 0 0.0 2.0 0.00 0.00 0.00 76 1015.6
20260830142529 50 0 0.0 2.0 0.00 0.00 0.00 76 1015.6
20260830142029 50 0 0.0 2.0 0.00 0.00 0.00 76 1015.6
20260830141553 50 118 0.0 2.0 0.00 0.00 0.00 76 1015.5
20260830141028 49 125 1.0 2.0 0.00 0.00 0.00 76 1015.4
20260830140526 49 0 0.0 0.0 0.00 0.00 0.00 77 1015.3
20260830140050 49 0 0.0 0.0 0.00 0.00 0.00 76 1015.3
20260830135526 49 0 0.0 1.0 0.00 0.00 0.00 76 1015.3
20260830135029 49 0 0.0 1.0 0.00 0.00 0.00 75 1015.2
20260830134545 49 0 0.0 1.0 0.00 0.00 0.00 75 1015.2
20260830134029 49 0 0.0 1.0 0.00 0.00 0.00 75 1015.2
20260830133535 49 124 0.0 1.0 0.00 0.00 0.00 75 1015.1
20260830133113 50 0 0.0 1.0 0.00 0.00 0.00 75 1015.2
20260830132531 50 0 0.0 1.0 0.00 0.00 0.00 75 1015.1
20260830132027 50 120 0.0 1.0 0.00 0.00 0.00 75 1015.2
20260830131611 50 0 0.0 1.0 0.00 0.00 0.00 75 1015.1
20260830131026 50 0 0.0 0.0 0.00 0.00 0.00 76 1015.1
20260830130527 50 0 0.0 1.0 0.00 0.00 0.00 76 1015.2
20260830130049 50 0 0.0 1.0 0.00 0.00 0.00 77 1015.1
20260830125528 50 133 0.0 1.0 0.00 0.00 0.00 77 1015.0
20260830125025 50 0 0.0 0.0 0.00 0.00 0.00 77 1015.0
20260830124604 50 0 0.0 1.0 0.00 0.00 0.00 76 1015.0
20260830124031 50 0 0.0 1.0 0.00 0.00 0.00 77 1015.0
20260830123527 49 127 0.0 1.0 0.00 0.00 0.00 77 1014.9
20260830123053 49 0 0.0 1.0 0.00 0.00 0.00 77 1015.0
20260830122528 49 0 0.0 0.0 0.00 0.00 0.00 77 1014.8
20260830122027 49 0 0.0 0.0 0.00 0.00 0.00 78 1014.9
20260830121558 49 0 0.0 0.0 0.00 0.00 0.00 79 1014.8
20260830121027 48 0 0.0 0.0 0.00 0.00 0.00 78 1014.7
20260830120528 48 0 0.0 0.0 0.00 0.00 0.00 78 1014.8
20260830120052 49 0 0.0 0.0 0.00 0.00 0.00 77 1014.9
20260830115531 49 0 0.0 0.0 0.00 0.00 0.00 77 1014.8
20260830115028 49 0 0.0 0.0 0.00 0.00 0.00 76 1014.8
20260830114545 49 0 0.0 0.0 0.00 0.00 0.00 75 1014.9
20260830114027 50 0 0.0 0.0 0.00 0.00 0.00 73 1014.8
20260830113532 50 0 0.0 0.0 0.00 0.00 0.00 73 1014.8
20260830113050 50 0 0.0 0.0 0.00 0.00 0.00 73 1014.9
20260830112528 51 0 0.0 0.0 0.00 0.00 0.00 73 1014.9
20260830112029 51 0 0.0 0.0 0.00 0.00 0.00 73 1015.0
20260830111548 51 0 0.0 2.0 0.00 0.00 0.00 72 1015.0
20260830111026 51 0 0.0 2.0 0.00 0.00 0.00 71 1014.8
20260830110526 51 0 0.0 1.0 0.00 0.00 0.00 71 1014.9
20260830110046 52 122 0.0 2.0 0.00 0.00 0.00 70 1014.9
20260830105528 52 0 0.0 2.0 0.00 0.00 0.00 70 1014.9
20260830105028 52 118 0.0 2.0 0.00 0.00 0.00 70 1014.8
20260830104541 52 0 0.0 2.0 0.00 0.00 0.00 70 1014.8
20260830104030 52 0 0.0 2.0 0.00 0.00 0.00 70 1014.7
20260830103530 52 0 0.0 2.0 0.00 0.00 0.00 70 1014.8
20260830103050 52 0 0.0 1.0 0.00 0.00 0.00 71 1014.9
20260830102525 52 0 0.0 1.0 0.00 0.00 0.00 71 1014.8
20260830102025 52 134 0.0 1.0 0.00 0.00 0.00 72 1014.9
20260830101550 52 0 0.0 0.0 0.00 0.00 0.00 71 1014.8
20260830101028 52 0 0.0 0.0 0.00 0.00 0.00 73 1014.8
20260830100526 52 0 0.0 0.0 0.00 0.00 0.00 73 1014.7
20260830100049 52 0 0.0 0.0 0.00 0.00 0.00 73 1014.8
20260830095529 52 0 0.0 0.0 0.00 0.00 0.00 72 1014.8
20260830095029 52 0 0.0 0.0 0.00 0.00 0.00 72 1014.8
20260830094555 52 0 0.0 0.0 0.00 0.00 0.00 72 1014.7
20260830094028 52 0 0.0 0.0 0.00 0.00 0.00 71 1014.7
20260830093529 52 0 0.0 0.0 0.00 0.00 0.00 70 1014.7
20260830093047 52 0 0.0 0.0 0.00 0.00 0.00 72 1014.7
20260830092527 52 0 0.0 0.0 0.00 0.00 0.00 71 1014.6
20260830092029 52 0 0.0 0.0 0.00 0.00 0.00 71 1014.7
20260830091544 52 0 0.0 0.0 0.00 0.00 0.00 71 1014.6
20260830091026 52 0 0.0 0.0 0.00 0.00 0.00 72 1014.6
20260830090531 52 0 0.0 0.0 0.00 0.00 0.00 72 1014.7
20260830090101 52 0 0.0 0.0 0.00 0.00 0.00 71 1014.7
20260830085527 52 0 0.0 0.0 0.00 0.00 0.00 71 1014.7
20260830085026 53 0 0.0 0.0 0.00 0.00 0.00 73 1014.7
20260830084544 53 0 0.0 0.0 0.00 0.00 0.00 74 1014.7
20260830084031 53 0 0.0 0.0 0.00 0.00 0.00 72 1014.7
20260830083529 53 0 0.0 0.0 0.00 0.00 0.00 72 1014.7
20260830083103 53 0 0.0 0.0 0.00 0.00 0.00 71 1014.7
20260830082528 54 0 0.0 0.0 0.00 0.00 0.00 72 1014.8
20260830082027 54 0 0.0 0.0 0.00 0.00 0.00 70 1014.8
20260830081548 54 0 0.0 0.0 0.00 0.00 0.00 71 1014.7
20260830081027 54 0 0.0 0.0 0.00 0.00 0.00 70 1014.8
20260830080526 54 0 0.0 0.0 0.00 0.00 0.00 69 1014.7
20260830080048 55 0 0.0 0.0 0.00 0.00 0.00 69 1014.7
20260830075528 55 0 0.0 0.0 0.00 0.00 0.00 69 1014.7
20260830075032 55 0 0.0 0.0 0.00 0.00 0.00 69 1014.7
20260830074550 56 0 0.0 0.0 0.00 0.00 0.00 71 1014.6
20260830074028 56 0 0.0 0.0 0.00 0.00 0.00 73 1014.7
20260830073528 56 0 0.0 0.0 0.00 0.00 0.00 74 1014.6
20260830073042 56 0 0.0 0.0 0.00 0.00 0.00 73 1014.7
20260830072530 56 0 0.0 0.0 0.00 0.00 0.00 71 1014.6
20260830072028 56 0 0.0 0.0 0.00 0.00 0.00 69 1014.5
20260830071552 56 0 0.0 0.0 0.00 0.00 0.00 68 1014.6
20260830071027 56 0 0.0 0.0 0.00 0.00 0.00 67 1014.5
20260830070528 57 0 0.0 0.0 0.00 0.00 0.00 70 1014.5
20260830065527 57 0 0.0 0.0 0.00 0.00 0.00 66 1014.5
20260830065030 58 0 0.0 0.0 0.00 0.00 0.00 64 1014.4
20260830064548 58 0 0.0 0.0 0.00 0.00 0.00 62 1014.4
20260830064029 59 0 0.0 0.0 0.00 0.00 0.00 63 1014.4
20260830063529 60 0 0.0 0.0 0.00 0.00 0.00 67 1014.3
20260830063042 60 0 0.0 0.0 0.00 0.00 0.00 67 1014.3
20260830062525 60 0 0.0 0.0 0.00 0.00 0.00 66 1014.3
20260830062027 60 0 0.0 0.0 0.00 0.00 0.00 66 1014.3
20260830061543 60 0 0.0 0.0 0.00 0.00 0.00 65 1014.3
20260830061027 60 0 0.0 0.0 0.00 0.00 0.00 63 1014.3
20260830060528 61 0 0.0 0.0 0.00 0.00 0.00 61 1014.2
20260830060051 61 0 0.0 0.0 0.00 0.00 0.00 61 1014.3
20260830055526 61 0 0.0 0.0 0.00 0.00 0.00 61 1014.3
20260830055028 61 0 0.0 0.0 0.00 0.00 0.00 61 1014.2
20260830054545 61 0 0.0 0.0 0.00 0.00 0.00 60 1014.1
20260830054028 61 0 0.0 0.0 0.00 0.00 0.00 58 1014.1
20260830053526 62 0 0.0 1.0 0.00 0.00 0.00 57 1014.0
20260830053045 62 0 0.0 1.0 0.00 0.00 0.00 58 1014.1
20260830052530 63 0 0.0 1.0 0.00 0.00 0.00 55 1014.1
20260830052028 64 0 0.0 1.0 0.00 0.00 0.00 56 1014.1
20260830051556 64 0 0.0 1.0 0.00 0.00 0.00 53 1014.2
20260830051027 65 0 0.0 0.0 0.00 0.00 0.00 54 1014.1
20260830050525 66 0 0.0 1.0 0.00 0.00 0.00 53 1014.1
20260830050052 66 0 0.0 1.0 0.00 0.00 0.00 51 1014.1
20260830045527 66 0 0.0 0.0 0.00 0.00 0.00 51 1014.2
20260830045028 67 0 0.0 0.0 0.00 0.00 0.00 52 1014.1
20260830044552 67 0 0.0 0.0 0.00 0.00 0.00 53 1014.2
20260830044026 67 0 0.0 0.0 0.00 0.00 0.00 53 1014.2
20260830043526 67 0 0.0 0.0 0.00 0.00 0.00 49 1014.2
20260830043048 67 0 0.0 0.0 0.00 0.00 0.00 51 1014.1
20260830042532 67 0 0.0 0.0 0.00 0.00 0.00 51 1014.1
20260830042031 67 0 0.0 0.0 0.00 0.00 0.00 53 1014.1
20260830041557 67 0 0.0 0.0 0.00 0.00 0.00 51 1014.0
20260830041032 68 0 0.0 0.0 0.00 0.00 0.00 49 1014.0
20260830040527 68 0 0.0 0.0 0.00 0.00 0.00 47 1014.0
20260830040052 68 0 0.0 0.0 0.00 0.00 0.00 49 1014.0
20260830035529 68 0 0.0 0.0 0.00 0.00 0.00 50 1014.0
20260830035029 69 0 0.0 0.0 0.00 0.00 0.00 49 1013.8
20260830034544 69 0 0.0 0.0 0.00 0.00 0.00 49 1013.7
20260830034034 69 0 0.0 0.0 0.00 0.00 0.00 50 1013.8
20260830033528 69 0 0.0 0.0 0.00 0.00 0.00 49 1013.7
20260830033059 70 0 0.0 0.0 0.00 0.00 0.00 47 1013.6
20260830032528 70 0 0.0 0.0 0.00 0.00 0.00 45 1013.4
20260830032028 71 0 0.0 0.0 0.00 0.00 0.00 43 1013.4
20260830031551 71 0 0.0 0.0 0.00 0.00 0.00 41 1013.2
20260830031029 72 0 0.0 0.0 0.00 0.00 0.00 40 1013.3
20260830030529 72 0 0.0 0.0 0.00 0.00 0.00 39 1013.3
20260830030054 72 0 0.0 0.0 0.00 0.00 0.00 38 1013.2
20260830025532 73 0 0.0 0.0 0.00 0.00 0.00 37 1013.0
20260830025028 73 0 0.0 0.0 0.00 0.00 0.00 36 1013.0
20260830024546 74 0 0.0 0.0 0.00 0.00 0.00 35 1013.0
20260830024026 75 0 0.0 0.0 0.00 0.00 0.00 34 1012.8
20260830023525 76 0 0.0 1.0 0.00 0.00 0.00 33 1012.7
20260830023056 76 0 0.0 1.0 0.00 0.00 0.00 32 1012.8
20260830022528 77 0 0.0 0.0 0.00 0.00 0.00 32 1012.8
20260830022026 77 0 0.0 1.0 0.00 0.00 0.00 31 1012.8
20260830021558 78 0 0.0 1.0 0.00 0.00 0.00 29 1012.8
20260830021028 79 0 0.0 1.0 0.00 0.00 0.00 28 1012.9
20260830020529 80 0 0.0 0.0 0.00 0.00 0.00 27 1012.9
20260830020050 81 0 0.0 0.0 0.00 0.00 0.00 27 1012.9
20260830015528 82 0 0.0 1.0 0.00 0.00 0.00 26 1012.9
20260830015028 83 0 0.0 1.0 0.00 0.00 0.00 25 1012.8